TimeEST,TemperatureF,Dew PointF,Humidity,Sea Level PressureIn,VisibilityMPH,Wind Direction,Wind SpeedMPH,Gust SpeedMPH,PrecipitationIn,Events,Conditions,WindDirDegrees,DateUTC
12:53 AM,52.0,39.9,63,30.17,10.0,NW,11.5,-,N/A,,Overcast,310,2012-01-03 05:53:00
1:53 AM,50.0,39.0,66,30.17,10.0,NW,13.8,-,N/A,,Partly Cloudy,310,2012-01-03 06:53:00
2:53 AM,50.0,34.0,54,30.19,10.0,NW,15.0,25.3,N/A,,Partly Cloudy,310,2012-01-03 07:53:00
3:53 AM,48.0,35.1,61,30.18,10.0,NW,8.1,-,N/A,,Scattered Clouds,310,2012-01-03 08:53:00
4:53 AM,48.9,37.0,64,30.19,10.0,NW,9.2,-,N/A,,Partly Cloudy,310,2012-01-03 09:53:00
5:53 AM,46.9,37.0,68,30.20,10.0,WNW,5.8,-,N/A,,Partly Cloudy,290,2012-01-03 10:53:00
6:53 AM,48.0,37.0,66,30.21,10.0,West,4.6,-,N/A,,Mostly Cloudy,280,2012-01-03 11:53:00
7:53 AM,48.0,30.9,52,30.27,10.0,NW,25.3,35.7,N/A,,Mostly Cloudy,320,2012-01-03 12:53:00
8:53 AM,46.9,21.9,37,30.31,10.0,NNW,25.3,40.3,N/A,,Mostly Cloudy,330,2012-01-03 13:53:00
9:53 AM,48.0,21.9,36,30.32,10.0,NW,26.5,36.8,N/A,,Mostly Cloudy,320,2012-01-03 14:53:00
10:53 AM,50.0,15.1,25,30.33,10.0,NNW,20.7,29.9,N/A,,Mostly Cloudy,330,2012-01-03 15:53:00
11:53 AM,52.0,10.0,19,30.30,10.0,NNW,21.9,26.5,N/A,,Scattered Clouds,340,2012-01-03 16:53:00
12:53 PM,52.0,7.0,16,30.27,10.0,NNW,18.4,28.8,N/A,,Scattered Clouds,340,2012-01-03 17:53:00
1:53 PM,52.0,8.1,17,30.27,10.0,NNW,16.1,-,N/A,,Partly Cloudy,330,2012-01-03 18:53:00
2:53 PM,53.1,8.1,16,30.26,10.0,North,17.3,24.2,N/A,,Partly Cloudy,360,2012-01-03 19:53:00
3:53 PM,53.1,7.0,16,30.27,10.0,NNW,17.3,-,N/A,,Partly Cloudy,330,2012-01-03 20:53:00
4:53 PM,50.0,10.0,20,30.29,10.0,NW,12.7,-,N/A,,Partly Cloudy,320,2012-01-03 21:53:00
5:53 PM,46.9,12.9,25,30.30,10.0,NNW,8.1,-,N/A,,Partly Cloudy,340,2012-01-03 22:53:00
6:53 PM,43.0,19.0,38,30.32,10.0,NNW,8.1,-,N/A,,Partly Cloudy,330,2012-01-03 23:53:00
7:53 PM,43.0,19.9,40,30.34,10.0,NW,9.2,-,N/A,,Clear,320,2012-01-04 00:53:00
8:53 PM,42.1,21.9,45,30.35,10.0,NW,9.2,-,N/A,,Clear,320,2012-01-04 01:53:00
9:53 PM,41.0,21.9,47,30.36,10.0,NW,9.2,-,N/A,,Clear,320,2012-01-04 02:53:00
10:53 PM,39.9,21.9,49,30.36,10.0,NW,9.2,-,N/A,,Clear,310,2012-01-04 03:53:00
11:53 PM,41.0,19.9,43,30.36,10.0,NW,10.4,-,N/A,,Clear,320,2012-01-04 04:53:00